Time,TemperatureF,DewpointF,PressureIn,WindDirection,WindDirectionDegrees,WindSpeedMPH,WindSpeedGustMPH,Humidity,HourlyPrecipIn,Conditions,Clouds,dailyrainin,SoftwareType,DateUTC
2013-10-15 00:01:00,38.8,38.3,30.40,ESE,110,0.0,0.0,98,0.00,,,0.00,Wunderground v.1.15,2013-10-15 07:01:00,
2013-10-15 00:08:00,38.7,38.2,30.40,ESE,110,0.0,0.0,98,0.00,,,0.00,Wunderground v.1.15,2013-10-15 07:08:00,
2013-10-15 00:16:00,38.5,38.0,30.40,ESE,110,0.0,0.0,98,0.00,,,0.00,Wunderground v.1.15,2013-10-15 07:16:00,
2013-10-15 00:22:00,38.4,37.9,30.40,ESE,110,0.0,0.0,98,0.00,,,0.00,Wunderground v.1.15,2013-10-15 07:22:00,
2013-10-15 00:28:00,38.3,37.8,30.40,ESE,110,0.0,0.0,98,0.00,,,0.00,Wunderground v.1.15,2013-10-15 07:28:00,
2013-10-15 00:35:00,38.3,37.8,30.40,ESE,110,0.0,0.0,98,0.00,,,0.00,Wunderground v.1.15,2013-10-15 07:35:00,
2013-10-15 00:41:00,38.2,37.7,30.40,ESE,110,0.0,0.0,98,0.00,,,0.00,Wunderground v.1.15,2013-10-15 07:41:00,
2013-10-15 00:48:00,38.1,37.6,30.40,WNW,294,0.0,0.0,98,0.00,,,0.00,Wunderground v.1.15,2013-10-15 07:48:00,
2013-10-15 00:55:00,38.2,37.7,30.40,WNW,294,0.0,0.0,98,0.00,,,0.00,Wunderground v.1.15,2013-10-15 07:55:00,
2013-10-15 01:02:00,38.3,37.8,30.40,NW,324,0.0,0.0,98,0.00,,,0.00,Wunderground v.1.15,2013-10-15 08:02:00,
2013-10-15 01:07:00,38.3,37.8,30.40,NW,324,0.0,0.0,98,0.00,,,0.00,Wunderground v.1.15,2013-10-15 08:07:00,
2013-10-15 01:15:00,37.7,37.2,30.40,NW,324,0.0,0.0,98,0.00,,,0.00,Wunderground v.1.15,2013-10-15 08:15:00,
2013-10-15 01:21:00,37.8,37.3,30.40,NW,324,0.0,0.0,98,0.00,,,0.00,Wunderground v.1.15,2013-10-15 08:21:00,
2013-10-15 01:28:00,37.9,37.4,30.40,ESE,113,0.0,1.0,98,0.00,,,0.00,Wunderground v.1.15,2013-10-15 08:28:00,
2013-10-15 01:35:00,37.6,37.1,30.39,ESE,107,1.0,1.0,98,0.00,,,0.00,Wunderground v.1.15,2013-10-15 08:35:00,
2013-10-15 01:41:00,37.4,36.9,30.40,WNW,285,0.0,2.0,98,0.00,,,0.00,Wunderground v.1.15,2013-10-15 08:41:00,
2013-10-15 01:48:00,37.5,37.0,30.40,West,262,0.0,2.0,98,0.00,,,0.00,Wunderground v.1.15,2013-10-15 08:48:00,
2013-10-15 01:56:00,37.6,37.1,30.40,West,262,0.0,0.0,98,0.00,,,0.00,Wunderground v.1.15,2013-10-15 08:56:00,
2013-10-15 02:01:00,37.7,37.2,30.40,West,262,0.0,0.0,98,0.00,,,0.00,Wunderground v.1.15,2013-10-15 09:01:00,
2013-10-15 02:07:00,37.6,37.1,30.40,West,262,0.0,0.0,98,0.00,,,0.00,Wunderground v.1.15,2013-10-15 09:07:00,
2013-10-15 02:15:00,37.7,37.2,30.40,NW,314,0.0,1.0,98,0.00,,,0.01,Wunderground v.1.15,2013-10-15 09:15:00,
2013-10-15 02:21:00,37.6,37.1,30.40,NW,314,0.0,0.0,98,0.00,,,0.01,Wunderground v.1.15,2013-10-15 09:21:00,
2013-10-15 02:28:00,37.5,37.0,30.40,NW,322,0.0,0.0,98,0.00,,,0.01,Wunderground v.1.15,2013-10-15 09:28:00,
2013-10-15 02:36:00,37.5,37.0,30.40,NE,39,0.0,0.0,98,0.00,,,0.01,Wunderground v.1.15,2013-10-15 09:36:00,
2013-10-15 02:42:00,37.4,36.9,30.40,NE,43,0.0,0.0,98,0.00,,,0.01,Wunderground v.1.15,2013-10-15 09:42:00,
2013-10-15 02:48:00,37.3,36.8,30.40,NE,43,0.0,0.0,98,0.00,,,0.01,Wunderground v.1.15,2013-10-15 09:48:00,
2013-10-15 02:55:00,37.2,36.7,30.40,ENE,60,0.0,0.0,98,0.00,,,0.01,Wunderground v.1.15,2013-10-15 09:55:00,
2013-10-15 03:02:00,37.0,36.5,30.39,ENE,61,0.0,0.0,98,0.00,,,0.01,Wunderground v.1.15,2013-10-15 10:02:00,
2013-10-15 03:07:00,36.8,36.3,30.39,ESE,110,0.0,0.0,98,0.00,,,0.01,Wunderground v.1.15,2013-10-15 10:07:00,
2013-10-15 03:15:00,36.7,36.2,30.39,ESE,107,0.0,1.0,98,0.00,,,0.01,Wunderground v.1.15,2013-10-15 10:15:00,
2013-10-15 03:21:00,36.7,36.2,30.38,ESE,107,0.0,0.0,98,0.00,,,0.01,Wunderground v.1.15,2013-10-15 10:21:00,
2013-10-15 03:28:00,36.5,36.0,30.38,ESE,107,0.0,0.0,98,0.00,,,0.01,Wunderground v.1.15,2013-10-15 10:28:00,
2013-10-15 03:36:00,36.4,35.9,30.38,ESE,107,0.0,0.0,98,0.00,,,0.01,Wunderground v.1.15,2013-10-15 10:36:00,
2013-10-15 03:42:00,36.3,35.8,30.38,ESE,105,0.0,0.0,98,0.00,,,0.01,Wunderground v.1.15,2013-10-15 10:42:00,
2013-10-15 03:47:00,36.2,35.7,30.38,NW,314,0.0,0.0,98,0.00,,,0.01,Wunderground v.1.15,2013-10-15 10:47:00,
2013-10-15 03:55:00,36.1,35.6,30.38,NW,314,0.0,0.0,98,0.00,,,0.01,Wunderground v.1.15,2013-10-15 10:55:00,
2013-10-15 04:02:00,36.1,35.6,30.38,NW,313,0.0,0.0,98,0.00,,,0.01,Wunderground v.1.15,2013-10-15 11:02:00,
2013-10-15 04:08:00,36.1,35.6,30.38,NW,313,0.0,0.0,98,0.00,,,0.01,Wunderground v.1.15,2013-10-15 11:08:00,
2013-10-15 04:16:00,36.0,35.5,30.38,NW,313,0.0,0.0,98,0.00,,,0.01,Wunderground v.1.15,2013-10-15 11:16:00,
2013-10-15 04:22:00,36.0,35.5,30.38,NW,313,0.0,0.0,98,0.00,,,0.01,Wunderground v.1.15,2013-10-15 11:22:00,
2013-10-15 04:27:00,36.0,35.5,30.38,ENE,65,0.0,0.0,98,0.00,,,0.01,Wunderground v.1.15,2013-10-15 11:27:00,
2013-10-15 04:33:00,35.5,35.0,30.38,ESE,114,0.0,1.0,98,0.00,,,0.01,Wunderground v.1.15,2013-10-15 11:33:00,
2013-10-15 04:39:00,35.3,34.8,30.38,ESE,113,0.0,0.0,98,0.00,,,0.01,Wunderground v.1.15,2013-10-15 11:39:00,
2013-10-15 04:45:00,35.6,35.1,30.38,ESE,117,0.0,1.0,98,0.00,,,0.01,Wunderground v.1.15,2013-10-15 11:45:00,
2013-10-15 04:51:00,35.5,35.0,30.38,ESE,117,0.0,0.0,98,0.00,,,0.01,Wunderground v.1.15,2013-10-15 11:51:00,
2013-10-15 04:58:00,35.4,34.9,30.38,ESE,117,0.0,0.0,98,0.00,,,0.01,Wunderground v.1.15,2013-10-15 11:58:00,
2013-10-15 05:06:00,35.4,34.9,30.38,ESE,116,0.0,0.0,98,0.00,,,0.01,Wunderground v.1.15,2013-10-15 12:06:00,
2013-10-15 05:12:00,35.3,34.8,30.38,ESE,116,0.0,0.0,98,0.00,,,0.01,Wunderground v.1.15,2013-10-15 12:12:00,
2013-10-15 05:18:00,35.6,35.3,30.38,ESE,117,0.0,0.0,99,0.00,,,0.01,Wunderground v.1.15,2013-10-15 12:18:00,
2013-10-15 05:26:00,35.6,35.3,30.38,ESE,115,0.0,0.0,99,0.00,,,0.01,Wunderground v.1.15,2013-10-15 12:26:00,
2013-10-15 05:32:00,35.5,35.2,30.38,ESE,114,0.0,0.0,99,0.00,,,0.01,Wunderground v.1.15,2013-10-15 12:32:00,
2013-10-15 05:37:00,35.7,35.4,30.38,SSE,167,0.0,0.0,99,0.00,,,0.01,Wunderground v.1.15,2013-10-15 12:37:00,
2013-10-15 05:46:00,35.8,35.5,30.37,SSE,167,0.0,0.0,99,0.00,,,0.01,Wunderground v.1.15,2013-10-15 12:46:00,
2013-10-15 05:52:00,35.7,35.4,30.37,SSE,167,0.0,0.0,99,0.00,,,0.01,Wunderground v.1.15,2013-10-15 12:52:00,
2013-10-15 05:57:00,35.8,35.5,30.37,SSE,167,0.0,0.0,99,0.00,,,0.01,Wunderground v.1.15,2013-10-15 12:57:00,
2013-10-15 06:06:00,35.6,35.3,30.37,SSE,167,0.0,0.0,99,0.00,,,0.01,Wunderground v.1.15,2013-10-15 13:06:00,
2013-10-15 06:12:00,35.5,35.0,30.37,SSE,167,0.0,0.0,98,0.00,,,0.01,Wunderground v.1.15,2013-10-15 13:12:00,
2013-10-15 06:17:00,35.5,35.2,30.37,SSE,167,0.0,0.0,99,0.00,,,0.01,Wunderground v.1.15,2013-10-15 13:17:00,
2013-10-15 06:23:00,35.4,35.1,30.37,SSE,167,0.0,0.0,99,0.00,,,0.01,Wunderground v.1.15,2013-10-15 13:23:00,
2013-10-15 06:30:00,35.3,35.0,30.37,SSE,166,0.0,0.0,99,0.00,,,0.01,Wunderground v.1.15,2013-10-15 13:30:00,
2013-10-15 06:35:00,35.5,35.2,30.37,ESE,111,0.0,0.0,99,0.00,,,0.01,Wunderground v.1.15,2013-10-15 13:35:00,
2013-10-15 06:41:00,35.4,35.1,30.37,ESE,111,0.0,0.0,99,0.00,,,0.01,Wunderground v.1.15,2013-10-15 13:41:00,
2013-10-15 06:48:00,35.2,34.9,30.37,ESE,111,0.0,0.0,99,0.00,,,0.01,Wunderground v.1.15,2013-10-15 13:48:00,
2013-10-15 06:56:00,35.2,34.9,30.37,West,276,0.0,0.0,99,0.00,,,0.01,Wunderground v.1.15,2013-10-15 13:56:00,
2013-10-15 07:01:00,35.1,34.8,30.37,West,276,0.0,0.0,99,0.00,,,0.01,Wunderground v.1.15,2013-10-15 14:01:00,
2013-10-15 07:08:00,35.0,34.7,30.37,West,276,0.0,0.0,99,0.00,,,0.01,Wunderground v.1.15,2013-10-15 14:08:00,
2013-10-15 07:15:00,34.8,34.5,30.37,West,276,0.0,0.0,99,0.00,,,0.01,Wunderground v.1.15,2013-10-15 14:15:00,
2013-10-15 07:21:00,35.0,34.7,30.37,West,276,0.0,0.0,99,0.00,,,0.01,Wunderground v.1.15,2013-10-15 14:21:00,
2013-10-15 07:27:00,35.0,34.7,30.37,West,276,0.0,0.0,99,0.00,,,0.01,Wunderground v.1.15,2013-10-15 14:27:00,
2013-10-15 07:36:00,35.2,34.9,30.37,West,274,0.0,0.0,99,0.00,,,0.01,Wunderground v.1.15,2013-10-15 14:36:00,
2013-10-15 07:42:00,35.4,35.1,30.37,West,274,0.0,0.0,99,0.00,,,0.01,Wunderground v.1.15,2013-10-15 14:42:00,
2013-10-15 07:48:00,35.5,35.2,30.37,ESE,114,0.0,0.0,99,0.00,,,0.01,Wunderground v.1.15,2013-10-15 14:48:00,
2013-10-15 07:55:00,35.4,35.1,30.37,ESE,114,0.0,0.0,99,0.00,,,0.01,Wunderground v.1.15,2013-10-15 14:55:00,
2013-10-15 08:02:00,35.3,35.0,30.38,NW,313,0.0,0.0,99,0.00,,,0.01,Wunderground v.1.15,2013-10-15 15:02:00,
2013-10-15 08:08:00,35.3,35.0,30.37,NW,314,0.0,0.0,99,0.00,,,0.01,Wunderground v.1.15,2013-10-15 15:08:00,
2013-10-15 08:15:00,35.6,35.3,30.37,East,101,0.0,0.0,99,0.00,,,0.01,Wunderground v.1.15,2013-10-15 15:15:00,
2013-10-15 08:22:00,36.0,35.7,30.37,East,101,0.0,0.0,99,0.00,,,0.01,Wunderground v.1.15,2013-10-15 15:22:00,
2013-10-15 08:27:00,36.5,36.2,30.37,East,101,0.0,0.0,99,0.00,,,0.01,Wunderground v.1.15,2013-10-15 15:27:00,
2013-10-15 08:34:00,36.9,36.6,30.37,East,101,0.0,1.0,99,0.00,,,0.01,Wunderground v.1.15,2013-10-15 15:34:00,
2013-10-15 08:40:00,36.8,36.5,30.37,NNE,14,0.0,0.0,99,0.00,,,0.01,Wunderground v.1.15,2013-10-15 15:40:00,
2013-10-15 08:46:00,37.0,36.7,30.37,NNE,15,0.0,0.0,99,0.00,,,0.01,Wunderground v.1.15,2013-10-15 15:46:00,
2013-10-15 08:52:00,37.5,37.2,30.37,NNE,15,0.0,0.0,99,0.00,,,0.01,Wunderground v.1.15,2013-10-15 15:52:00,
2013-10-15 08:57:00,38.8,38.5,30.37,ESE,108,0.0,0.0,99,0.00,,,0.01,Wunderground v.1.15,2013-10-15 15:57:00,
2013-10-15 09:05:00,39.1,38.8,30.36,ESE,110,1.0,1.0,99,0.00,,,0.01,Wunderground v.1.15,2013-10-15 16:05:00,
2013-10-15 09:11:00,39.7,39.4,30.36,ESE,110,0.0,1.0,99,0.00,,,0.01,Wunderground v.1.15,2013-10-15 16:11:00,
2013-10-15 09:17:00,40.4,40.1,30.37,NNW,345,0.0,1.0,99,0.00,,,0.01,Wunderground v.1.15,2013-10-15 16:17:00,
2013-10-15 09:26:00,40.9,40.6,30.37,NNW,346,0.0,0.0,99,0.00,,,0.01,Wunderground v.1.15,2013-10-15 16:26:00,
2013-10-15 09:32:00,41.5,41.2,30.36,NNE,15,0.0,0.0,99,0.00,,,0.01,Wunderground v.1.15,2013-10-15 16:32:00,
2013-10-15 09:38:00,41.5,41.2,30.36,NNW,327,0.0,1.0,99,0.00,,,0.01,Wunderground v.1.15,2013-10-15 16:38:00,
2013-10-15 09:45:00,41.8,41.5,30.36,NNW,328,1.0,1.0,99,0.00,,,0.01,Wunderground v.1.15,2013-10-15 16:45:00,
2013-10-15 09:51:00,43.5,43.2,30.36,NNW,328,0.0,0.0,99,0.00,,,0.01,Wunderground v.1.15,2013-10-15 16:51:00,
2013-10-15 09:58:00,44.0,43.7,30.35,NW,321,0.0,0.0,99,0.00,,,0.01,Wunderground v.1.15,2013-10-15 16:58:00,
2013-10-15 10:05:00,44.0,43.5,30.35,NW,305,0.0,0.0,98,0.00,,,0.01,Wunderground v.1.15,2013-10-15 17:05:00,
2013-10-15 10:11:00,44.3,43.8,30.35,WNW,300,0.0,1.0,98,0.00,,,0.01,Wunderground v.1.15,2013-10-15 17:11:00,
2013-10-15 10:17:00,45.2,44.9,30.35,SSW,212,0.0,1.0,99,0.00,,,0.01,Wunderground v.1.15,2013-10-15 17:17:00,
2013-10-15 10:24:00,46.0,45.7,30.35,SSW,212,0.0,0.0,99,0.00,,,0.01,Wunderground v.1.15,2013-10-15 17:24:00,
2013-10-15 10:30:00,46.5,46.0,30.35,SW,226,0.0,1.0,98,0.00,,,0.01,Wunderground v.1.15,2013-10-15 17:30:00,
2013-10-15 10:36:00,46.9,46.1,30.35,SW,226,0.0,1.0,97,0.00,,,0.01,Wunderground v.1.15,2013-10-15 17:36:00,
2013-10-15 10:42:00,47.4,46.3,30.35,SW,226,0.0,0.0,96,0.00,,,0.01,Wunderground v.1.15,2013-10-15 17:42:00,
2013-10-15 10:47:00,47.9,46.8,30.35,SW,227,0.0,0.0,96,0.00,,,0.01,Wunderground v.1.15,2013-10-15 17:47:00,
2013-10-15 10:53:00,48.9,47.5,30.35,WSW,257,0.0,0.0,95,0.00,,,0.01,Wunderground v.1.15,2013-10-15 17:53:00,
2013-10-15 11:00:00,49.3,46.5,30.34,NW,318,0.0,0.0,90,0.00,,,0.01,Wunderground v.1.15,2013-10-15 18:00:00,
2013-10-15 11:06:00,49.8,46.7,30.34,West,263,0.0,1.0,89,0.00,,,0.01,Wunderground v.1.15,2013-10-15 18:06:00,
2013-10-15 11:12:00,50.2,46.8,30.34,WNW,283,0.0,1.0,88,0.00,,,0.01,Wunderground v.1.15,2013-10-15 18:12:00,
2013-10-15 11:17:00,51.1,47.1,30.34,NW,324,0.0,1.0,86,0.00,,,0.01,Wunderground v.1.15,2013-10-15 18:17:00,
2013-10-15 11:24:00,52.4,47.4,30.33,ESE,114,0.0,0.0,83,0.00,,,0.01,Wunderground v.1.15,2013-10-15 18:24:00,
2013-10-15 11:29:00,53.0,47.0,30.33,West,274,0.0,1.0,80,0.00,,,0.01,Wunderground v.1.15,2013-10-15 18:29:00,
2013-10-15 11:36:00,53.3,47.9,30.33,WNW,285,0.0,1.0,82,0.00,,,0.01,Wunderground v.1.15,2013-10-15 18:36:00,
2013-10-15 11:42:00,53.9,47.9,30.32,WNW,302,0.0,0.0,80,0.00,,,0.01,Wunderground v.1.15,2013-10-15 18:42:00,
2013-10-15 11:48:00,54.0,47.3,30.32,ESE,107,0.0,2.0,78,0.00,,,0.01,Wunderground v.1.15,2013-10-15 18:48:00,
2013-10-15 11:56:00,54.6,48.2,30.32,ENE,76,0.0,0.0,79,0.00,,,0.01,Wunderground v.1.15,2013-10-15 18:56:00,
2013-10-15 12:01:00,55.2,47.8,30.32,SE,134,0.0,0.0,76,0.00,,,0.01,Wunderground v.1.15,2013-10-15 19:01:00,
2013-10-15 12:08:00,55.4,47.6,30.31,West,271,1.0,1.0,75,0.00,,,0.01,Wunderground v.1.15,2013-10-15 19:08:00,
2013-10-15 12:16:00,55.0,47.2,30.31,West,281,0.0,1.0,75,0.00,,,0.01,Wunderground v.1.15,2013-10-15 19:16:00,
2013-10-15 12:22:00,55.5,47.3,30.31,WSW,249,1.0,2.0,74,0.00,,,0.01,Wunderground v.1.15,2013-10-15 19:22:00,
2013-10-15 12:27:00,55.6,47.8,30.31,SE,129,1.0,2.0,75,0.00,,,0.01,Wunderground v.1.15,2013-10-15 19:27:00,
2013-10-15 12:36:00,56.5,47.6,30.31,SW,233,1.0,3.0,72,0.00,,,0.01,Wunderground v.1.15,2013-10-15 19:36:00,
2013-10-15 12:42:00,56.1,47.2,30.31,SSW,203,2.0,2.0,72,0.00,,,0.01,Wunderground v.1.15,2013-10-15 19:42:00,
2013-10-15 12:48:00,56.5,47.9,30.30,NW,311,1.0,4.0,73,0.00,,,0.01,Wunderground v.1.15,2013-10-15 19:48:00,
2013-10-15 12:55:00,56.4,47.5,30.30,SW,228,1.0,3.0,72,0.00,,,0.01,Wunderground v.1.15,2013-10-15 19:55:00,
2013-10-15 13:02:00,57.2,48.3,30.30,South,183,1.0,1.0,72,0.00,,,0.01,Wunderground v.1.15,2013-10-15 20:02:00,
2013-10-15 13:08:00,57.8,48.1,30.30,SSW,203,1.0,1.0,70,0.00,,,0.01,Wunderground v.1.15,2013-10-15 20:08:00,
2013-10-15 13:15:00,58.6,48.8,30.30,NE,52,0.0,1.0,70,0.00,,,0.01,Wunderground v.1.15,2013-10-15 20:15:00,
2013-10-15 13:21:00,59.6,49.8,30.30,East,96,0.0,0.0,70,0.00,,,0.01,Wunderground v.1.15,2013-10-15 20:21:00,
2013-10-15 13:27:00,60.4,49.0,30.29,SW,221,0.0,1.0,66,0.00,,,0.01,Wunderground v.1.15,2013-10-15 20:27:00,
2013-10-15 13:34:00,59.9,48.9,30.29,West,259,1.0,2.0,67,0.00,,,0.01,Wunderground v.1.15,2013-10-15 20:34:00,
2013-10-15 13:40:00,60.3,48.9,30.29,NE,56,1.0,1.0,66,0.00,,,0.01,Wunderground v.1.15,2013-10-15 20:40:00,
2013-10-15 13:45:00,60.0,49.4,30.28,NE,50,2.0,2.0,68,0.00,,,0.01,Wunderground v.1.15,2013-10-15 20:45:00,
2013-10-15 13:51:00,60.4,49.0,30.28,West,280,2.0,4.0,66,0.00,,,0.01,Wunderground v.1.15,2013-10-15 20:51:00,
2013-10-15 13:57:00,61.1,49.7,30.28,East,85,1.0,4.0,66,0.00,,,0.01,Wunderground v.1.15,2013-10-15 20:57:00,
2013-10-15 14:05:00,60.7,49.7,30.27,NE,53,2.0,6.0,67,0.00,,,0.01,Wunderground v.1.15,2013-10-15 21:05:00,
2013-10-15 14:11:00,61.3,50.2,30.27,North,6,1.0,2.0,67,0.00,,,0.01,Wunderground v.1.15,2013-10-15 21:11:00,
2013-10-15 14:17:00,61.8,49.9,30.27,North,11,0.0,2.0,65,0.00,,,0.01,Wunderground v.1.15,2013-10-15 21:17:00,
2013-10-15 14:24:00,61.8,49.1,30.27,NNE,19,0.0,0.0,63,0.00,,,0.01,Wunderground v.1.15,2013-10-15 21:24:00,
2013-10-15 14:30:00,61.8,50.3,30.26,NW,308,0.0,1.0,66,0.00,,,0.01,Wunderground v.1.15,2013-10-15 21:30:00,
2013-10-15 14:36:00,62.2,50.3,30.26,NE,43,0.0,1.0,65,0.00,,,0.01,Wunderground v.1.15,2013-10-15 21:36:00,
2013-10-15 14:42:00,61.7,50.2,30.26,SSE,160,1.0,2.0,66,0.00,,,0.01,Wunderground v.1.15,2013-10-15 21:42:00,
2013-10-15 14:47:00,61.6,50.5,30.26,SSW,207,1.0,2.0,67,0.00,,,0.01,Wunderground v.1.15,2013-10-15 21:47:00,
2013-10-15 14:53:00,61.7,51.0,30.26,South,191,1.0,3.0,68,0.00,,,0.01,Wunderground v.1.15,2013-10-15 21:53:00,
2013-10-15 15:00:00,61.4,50.7,30.25,SSW,206,2.0,6.0,68,0.00,,,0.01,Wunderground v.1.15,2013-10-15 22:00:00,
2013-10-15 15:05:00,60.3,50.1,30.25,SSW,203,3.0,6.0,69,0.00,,,0.01,Wunderground v.1.15,2013-10-15 22:05:00,
2013-10-15 15:12:00,59.5,49.7,30.25,SSW,198,3.0,3.0,70,0.00,,,0.01,Wunderground v.1.15,2013-10-15 22:12:00,
2013-10-15 15:17:00,59.0,50.0,30.25,WSW,251,3.0,5.0,72,0.00,,,0.01,Wunderground v.1.15,2013-10-15 22:17:00,
2013-10-15 15:26:00,58.3,49.7,30.25,SW,233,3.0,3.0,73,0.00,,,0.01,Wunderground v.1.15,2013-10-15 22:26:00,
2013-10-15 15:32:00,58.4,50.1,30.25,SW,217,2.0,3.0,74,0.00,,,0.01,Wunderground v.1.15,2013-10-15 22:32:00,
2013-10-15 15:38:00,58.7,49.3,30.24,WSW,250,1.0,3.0,71,0.00,,,0.01,Wunderground v.1.15,2013-10-15 22:38:00,
2013-10-15 15:46:00,58.9,50.3,30.24,SE,132,2.0,2.0,73,0.00,,,0.01,Wunderground v.1.15,2013-10-15 22:46:00,
2013-10-15 15:52:00,59.4,50.4,30.24,SSE,147,1.0,3.0,72,0.00,,,0.01,Wunderground v.1.15,2013-10-15 22:52:00,
2013-10-15 15:57:00,59.6,49.8,30.24,SW,221,2.0,3.0,70,0.00,,,0.01,Wunderground v.1.15,2013-10-15 22:57:00,
2013-10-15 16:06:00,60.3,50.1,30.23,East,101,1.0,2.0,69,0.00,,,0.01,Wunderground v.1.15,2013-10-15 23:06:00,
2013-10-15 16:12:00,60.7,50.5,30.23,SE,131,1.0,2.0,69,0.00,,,0.01,Wunderground v.1.15,2013-10-15 23:12:00,
2013-10-15 16:17:00,60.8,50.2,30.23,ESE,111,1.0,2.0,68,0.00,,,0.01,Wunderground v.1.15,2013-10-15 23:17:00,
2013-10-15 16:23:00,60.8,50.6,30.23,SE,131,2.0,2.0,69,0.00,,,0.01,Wunderground v.1.15,2013-10-15 23:23:00,
2013-10-15 16:29:00,60.9,50.7,30.23,SSE,163,1.0,1.0,69,0.00,,,0.01,Wunderground v.1.15,2013-10-15 23:29:00,
2013-10-15 16:36:00,60.8,50.6,30.23,East,93,2.0,2.0,69,0.00,,,0.01,Wunderground v.1.15,2013-10-15 23:36:00,
2013-10-15 16:42:00,60.6,50.8,30.23,SE,145,1.0,2.0,70,0.00,,,0.01,Wunderground v.1.15,2013-10-15 23:42:00,
2013-10-15 16:48:00,60.7,50.5,30.22,SE,141,1.0,2.0,69,0.00,,,0.01,Wunderground v.1.15,2013-10-15 23:48:00,
2013-10-15 16:56:00,59.7,50.7,30.22,SE,134,1.0,2.0,72,0.00,,,0.01,Wunderground v.1.15,2013-10-15 23:56:00,
2013-10-15 17:02:00,59.2,50.5,30.22,SSE,148,1.0,1.0,73,0.00,,,0.01,Wunderground v.1.15,2013-10-16 00:02:00,
2013-10-15 17:08:00,59.0,50.7,30.22,SW,233,0.0,1.0,74,0.00,,,0.01,Wunderground v.1.15,2013-10-16 00:08:00,
2013-10-15 17:15:00,58.8,50.2,30.22,SE,135,0.0,0.0,73,0.00,,,0.01,Wunderground v.1.15,2013-10-16 00:15:00,
2013-10-15 17:22:00,58.3,50.0,30.22,NW,306,1.0,1.0,74,0.00,,,0.01,Wunderground v.1.15,2013-10-16 00:22:00,
2013-10-15 17:27:00,57.9,49.7,30.21,NNW,335,1.0,1.0,74,0.00,,,0.01,Wunderground v.1.15,2013-10-16 00:27:00,
2013-10-15 17:36:00,57.6,49.7,30.21,NE,35,0.0,1.0,75,0.00,,,0.01,Wunderground v.1.15,2013-10-16 00:36:00,
2013-10-15 17:42:00,57.3,49.4,30.21,NE,44,0.0,0.0,75,0.00,,,0.01,Wunderground v.1.15,2013-10-16 00:42:00,
2013-10-15 17:48:00,57.1,49.2,30.21,ENE,71,0.0,0.0,75,0.00,,,0.01,Wunderground v.1.15,2013-10-16 00:48:00,
2013-10-15 17:55:00,57.2,49.0,30.21,NNW,328,0.0,0.0,74,0.00,,,0.01,Wunderground v.1.15,2013-10-16 00:55:00,
2013-10-15 18:02:00,57.1,48.9,30.21,NNW,328,0.0,0.0,74,0.00,,,0.01,Wunderground v.1.15,2013-10-16 01:02:00,
2013-10-15 18:07:00,56.9,48.7,30.20,North,8,0.0,1.0,74,0.00,,,0.01,Wunderground v.1.15,2013-10-16 01:07:00,
2013-10-15 18:13:00,56.2,48.0,30.20,North,6,0.0,0.0,74,0.00,,,0.01,Wunderground v.1.15,2013-10-16 01:13:00,
2013-10-15 18:19:00,55.8,48.0,30.20,North,6,0.0,0.0,75,0.00,,,0.01,Wunderground v.1.15,2013-10-16 01:19:00,
2013-10-15 18:26:00,55.1,47.7,30.20,NNW,328,0.0,1.0,76,0.00,,,0.01,Wunderground v.1.15,2013-10-16 01:26:00,
2013-10-15 18:32:00,54.7,47.6,30.20,NNW,328,0.0,0.0,77,0.00,,,0.01,Wunderground v.1.15,2013-10-16 01:32:00,
2013-10-15 18:38:00,54.2,47.8,30.20,NNW,328,0.0,0.0,79,0.00,,,0.01,Wunderground v.1.15,2013-10-16 01:38:00,
2013-10-15 18:45:00,53.5,47.8,30.20,NNW,327,0.0,0.0,81,0.00,,,0.01,Wunderground v.1.15,2013-10-16 01:45:00,
2013-10-15 18:51:00,52.9,47.9,30.20,NNW,328,0.0,0.0,83,0.00,,,0.01,Wunderground v.1.15,2013-10-16 01:51:00,
2013-10-15 18:57:00,52.4,47.7,30.20,NNW,327,0.0,0.0,84,0.00,,,0.01,Wunderground v.1.15,2013-10-16 01:57:00,
2013-10-15 19:03:00,51.8,47.4,30.19,NNW,328,0.0,0.0,85,0.00,,,0.01,Wunderground v.1.15,2013-10-16 02:03:00,
2013-10-15 19:10:00,51.0,47.3,30.19,NNW,328,0.0,0.0,87,0.00,,,0.01,Wunderground v.1.15,2013-10-16 02:10:00,
2013-10-15 19:16:00,50.6,47.2,30.19,NNW,327,0.0,0.0,88,0.00,,,0.01,Wunderground v.1.15,2013-10-16 02:16:00,
2013-10-15 19:22:00,50.3,47.2,30.19,NNW,327,0.0,0.0,89,0.00,,,0.01,Wunderground v.1.15,2013-10-16 02:22:00,
2013-10-15 19:27:00,50.0,47.2,30.19,NNW,328,0.0,0.0,90,0.00,,,0.01,Wunderground v.1.15,2013-10-16 02:27:00,
2013-10-15 19:35:00,49.6,47.1,30.19,NNW,328,0.0,0.0,91,0.00,,,0.01,Wunderground v.1.15,2013-10-16 02:35:00,
2013-10-15 19:41:00,49.3,46.8,30.20,NNW,328,0.0,0.0,91,0.00,,,0.01,Wunderground v.1.15,2013-10-16 02:41:00,
2013-10-15 19:48:00,49.1,46.9,30.20,NNW,328,0.0,0.0,92,0.00,,,0.01,Wunderground v.1.15,2013-10-16 02:48:00,
2013-10-15 19:55:00,48.9,47.0,30.20,NNW,327,0.0,0.0,93,0.00,,,0.01,Wunderground v.1.15,2013-10-16 02:55:00,
2013-10-15 20:02:00,48.8,46.9,30.20,NNW,328,0.0,0.0,93,0.00,,,0.01,Wunderground v.1.15,2013-10-16 03:02:00,
2013-10-15 20:08:00,48.5,46.6,30.20,ENE,58,0.0,0.0,93,0.00,,,0.01,Wunderground v.1.15,2013-10-16 03:08:00,
2013-10-15 20:15:00,48.0,46.1,30.19,ESE,102,1.0,1.0,93,0.00,,,0.01,Wunderground v.1.15,2013-10-16 03:15:00,
2013-10-15 20:21:00,47.6,46.0,30.19,ESE,105,1.0,1.0,94,0.00,,,0.01,Wunderground v.1.15,2013-10-16 03:21:00,
2013-10-15 20:28:00,47.5,45.9,30.19,ESE,105,0.0,1.0,94,0.00,,,0.01,Wunderground v.1.15,2013-10-16 03:28:00,
2013-10-15 20:36:00,47.5,46.1,30.19,WNW,303,0.0,0.0,95,0.00,,,0.01,Wunderground v.1.15,2013-10-16 03:36:00,
2013-10-15 20:42:00,47.4,46.0,30.19,NW,304,0.0,0.0,95,0.00,,,0.01,Wunderground v.1.15,2013-10-16 03:42:00,
2013-10-15 20:47:00,47.2,45.8,30.19,NW,321,0.0,0.0,95,0.00,,,0.01,Wunderground v.1.15,2013-10-16 03:47:00,
2013-10-15 20:55:00,47.1,45.7,30.19,NW,321,0.0,0.0,95,0.00,,,0.01,Wunderground v.1.15,2013-10-16 03:55:00,
2013-10-15 21:01:00,47.0,45.6,30.20,NW,321,0.0,0.0,95,0.00,,,0.01,Wunderground v.1.15,2013-10-16 04:01:00,
2013-10-15 21:06:00,46.9,45.5,30.19,NW,321,0.0,0.0,95,0.00,,,0.01,Wunderground v.1.15,2013-10-16 04:06:00,
2013-10-15 21:08:00,46.9,45.5,30.19,NW,320,0.0,0.0,95,0.00,,,0.01,Wunderground v.1.15,2013-10-16 04:08:00,
2013-10-15 21:15:00,46.8,45.4,30.19,NW,320,0.0,0.0,95,0.00,,,0.01,Wunderground v.1.15,2013-10-16 04:15:00,
2013-10-15 21:22:00,46.8,45.4,30.20,NW,320,0.0,0.0,95,0.00,,,0.01,Wunderground v.1.15,2013-10-16 04:22:00,
2013-10-15 21:23:00,46.8,45.7,30.20,NW,320,0.0,0.0,96,0.00,,,0.01,Wunderground v.1.15,2013-10-16 04:23:00,
2013-10-15 21:29:00,46.9,45.8,30.19,NW,321,0.0,0.0,96,0.00,,,0.01,Wunderground v.1.15,2013-10-16 04:29:00,
2013-10-15 21:36:00,47.1,45.7,30.19,ESE,117,0.0,1.0,95,0.00,,,0.01,Wunderground v.1.15,2013-10-16 04:36:00,
2013-10-15 21:42:00,47.1,45.7,30.20,ESE,117,0.0,0.0,95,0.00,,,0.01,Wunderground v.1.15,2013-10-16 04:42:00,
2013-10-15 21:47:00,47.1,45.7,30.20,ESE,117,0.0,0.0,95,0.00,,,0.01,Wunderground v.1.15,2013-10-16 04:47:00,
2013-10-15 21:56:00,47.1,45.7,30.20,ESE,117,0.0,0.0,95,0.00,,,0.01,Wunderground v.1.15,2013-10-16 04:56:00,
2013-10-15 22:01:00,47.3,46.2,30.20,ESE,117,0.0,0.0,96,0.00,,,0.01,Wunderground v.1.15,2013-10-16 05:01:00,
2013-10-15 22:07:00,47.4,46.3,30.20,ESE,114,0.0,1.0,96,0.00,,,0.01,Wunderground v.1.15,2013-10-16 05:07:00,
2013-10-15 22:16:00,47.5,46.4,30.20,East,98,0.0,0.0,96,0.00,,,0.01,Wunderground v.1.15,2013-10-16 05:16:00,
2013-10-15 22:22:00,47.6,46.2,30.19,East,98,0.0,0.0,95,0.00,,,0.01,Wunderground v.1.15,2013-10-16 05:22:00,
2013-10-15 22:27:00,47.6,46.5,30.19,ESE,113,0.0,0.0,96,0.00,,,0.01,Wunderground v.1.15,2013-10-16 05:27:00,
2013-10-15 22:33:00,47.7,46.6,30.19,ESE,113,0.0,0.0,96,0.00,,,0.01,Wunderground v.1.15,2013-10-16 05:33:00,
2013-10-15 22:38:00,47.8,46.7,30.19,ESE,113,0.0,0.0,96,0.00,,,0.01,Wunderground v.1.15,2013-10-16 05:38:00,
2013-10-15 22:46:00,48.0,46.9,30.19,ESE,110,0.0,0.0,96,0.00,,,0.01,Wunderground v.1.15,2013-10-16 05:46:00,
2013-10-15 22:52:00,48.1,47.0,30.19,ESE,110,0.0,0.0,96,0.00,,,0.01,Wunderground v.1.15,2013-10-16 05:52:00,
2013-10-15 22:57:00,48.2,47.1,30.18,ESE,111,0.0,0.0,96,0.00,,,0.01,Wunderground v.1.15,2013-10-16 05:57:00,
2013-10-15 23:06:00,48.3,47.2,30.18,ESE,111,0.0,0.0,96,0.00,,,0.01,Wunderground v.1.15,2013-10-16 06:06:00,
2013-10-15 23:12:00,48.3,47.2,30.19,ESE,110,0.0,1.0,96,0.00,,,0.01,Wunderground v.1.15,2013-10-16 06:12:00,
2013-10-15 23:18:00,48.2,46.8,30.19,ESE,110,0.0,1.0,95,0.00,,,0.01,Wunderground v.1.15,2013-10-16 06:18:00,
2013-10-15 23:25:00,48.2,46.8,30.18,ESE,110,0.0,0.0,95,0.00,,,0.01,Wunderground v.1.15,2013-10-16 06:25:00,
2013-10-15 23:31:00,48.2,46.8,30.18,ESE,110,0.0,0.0,95,0.00,,,0.01,Wunderground v.1.15,2013-10-16 06:31:00,
2013-10-15 23:37:00,48.2,47.1,30.18,ESE,110,0.0,0.0,96,0.00,,,0.01,Wunderground v.1.15,2013-10-16 06:37:00,
2013-10-15 23:46:00,48.3,46.9,30.18,ESE,111,0.0,0.0,95,0.00,,,0.01,Wunderground v.1.15,2013-10-16 06:46:00,
2013-10-15 23:52:00,48.3,46.9,30.18,ESE,111,0.0,0.0,95,0.00,,,0.01,Wunderground v.1.15,2013-10-16 06:52:00,
2013-10-15 23:58:00,48.2,46.8,30.18,ESE,112,0.0,0.0,95,0.00,,,0.01,Wunderground v.1.15,2013-10-16 06:58:00,